User: anonymous   Login
Location: Ostrava
(49.8330°N, 18.2830°E)
Time: 04:50:38
(UTC+01:00)
Language:

NOAA 19 - Orbit

View from above orbital plane
View from above orbital plane
View from above satellite
View from above satellite

Ground track
Ground track

The orbit data is extracted from the following two-line orbital elements,

1 33591U 09005A   16343.74626682  .00000001  00000-0  45295-6 0  9995
2 33591  99.0645 302.1555 0015001  87.7031 272.6339 14.12132084404264
Epoch (UTC): 08 December 2016 17:54:37
Eccentricity: 0.0015001
inclination: 99.0645°
perigee height: 841 km
apogee height: 863 km
right ascension of ascending node: 302.1555°
argument of perigee: 87.7031°
revolutions per day: 14.12132084
mean anomaly at epoch: 272.6339°
orbit number at epoch: 40426

The dashed part of the orbit path shows where the satellite is in the earth's shadow,  

DLR